TimeEST,TemperatureF,Dew PointF,Humidity,Sea Level PressureIn,VisibilityMPH,Wind Direction,Wind SpeedMPH,Gust SpeedMPH,PrecipitationIn,Events,Conditions,WindDirDegrees,DateUTC
12:56 AM,72.0,68.0,87,30.09,-9999.0,SSW,18.4,26.5,N/A,,Clear,200,2013-12-07 05:56:00
1:45 AM,72.0,69.1,91,30.07,-9999.0,SSW,17.3,24.2,N/A,,Partly Cloudy,210,2013-12-07 06:45:00
1:56 AM,72.0,69.1,91,30.08,-9999.0,SSW,15.0,-,N/A,,Clear,210,2013-12-07 06:56:00
2:56 AM,72.0,66.9,84,30.09,-9999.0,SW,15.0,24.2,N/A,,Partly Cloudy,220,2013-12-07 07:56:00
3:15 AM,71.1,66.9,87,30.08,-9999.0,SW,16.1,-,N/A,,Mostly Cloudy,220,2013-12-07 08:15:00
3:36 AM,71.1,66.9,87,30.08,-9999.0,SSW,15.0,27.6,N/A,,Scattered Clouds,210,2013-12-07 08:36:00
3:56 AM,72.0,68.0,87,30.09,-9999.0,SW,16.1,24.2,N/A,,Clear,220,2013-12-07 08:56:00
4:27 AM,72.0,69.1,91,30.08,-9999.0,SW,17.3,-,N/A,,Mostly Cloudy,220,2013-12-07 09:27:00
4:56 AM,72.0,69.1,91,30.10,-9999.0,SW,18.4,24.2,N/A,,Overcast,220,2013-12-07 09:56:00
5:53 AM,71.6,69.8,94,30.09,-9999.0,SW,17.3,26.5,N/A,,Scattered Clouds,220,2013-12-07 10:53:00
5:56 AM,72.0,68.0,87,30.11,-9999.0,SW,17.3,26.5,N/A,,Scattered Clouds,220,2013-12-07 10:56:00
6:20 AM,71.1,68.0,90,30.10,-9999.0,SW,15.0,24.2,N/A,,Partly Cloudy,220,2013-12-07 11:20:00
6:56 AM,71.1,68.0,90,30.12,-9999.0,SW,12.7,-,N/A,,Mostly Cloudy,220,2013-12-07 11:56:00
7:56 AM,71.1,66.9,87,30.14,-9999.0,SW,12.7,-,N/A,,Overcast,220,2013-12-07 12:56:00
8:51 AM,57.2,53.6,88,30.18,-9999.0,North,19.6,29.9,N/A,,Overcast,350,2013-12-07 13:51:00
8:56 AM,55.9,53.1,90,30.19,-9999.0,North,18.4,29.9,N/A,,Overcast,350,2013-12-07 13:56:00
8:58 AM,55.9,53.1,90,30.18,-9999.0,North,18.4,27.6,N/A,,Overcast,360,2013-12-07 13:58:00
9:08 AM,55.0,53.1,93,30.20,-9999.0,North,17.3,24.2,N/A,Rain,Rain,360,2013-12-07 14:08:00
9:27 AM,54.0,52.0,93,30.22,-9999.0,North,19.6,26.5,N/A,Rain,Light Rain,360,2013-12-07 14:27:00
9:56 AM,52.0,50.0,93,30.25,-9999.0,North,16.1,26.5,N/A,Rain,Light Rain,10,2013-12-07 14:56:00
10:56 AM,48.0,46.0,93,30.27,-9999.0,North,15.0,24.2,N/A,Rain,Light Rain,360,2013-12-07 15:56:00
11:14 AM,48.0,46.0,93,30.27,-9999.0,North,13.8,21.9,N/A,Rain,Rain,10,2013-12-07 16:14:00
11:56 AM,48.0,45.0,89,30.27,-9999.0,North,19.6,26.5,N/A,,Overcast,360,2013-12-07 16:56:00
12:10 PM,48.0,45.0,89,30.26,-9999.0,North,17.3,-,N/A,Rain,Light Rain,360,2013-12-07 17:10:00
12:56 PM,48.0,45.0,89,30.27,-9999.0,North,16.1,23.0,N/A,,Overcast,360,2013-12-07 17:56:00
1:12 PM,48.0,45.0,89,30.25,-9999.0,North,13.8,21.9,N/A,,Overcast,10,2013-12-07 18:12:00
1:56 PM,48.0,45.0,89,30.28,-9999.0,North,15.0,-,N/A,Rain,Light Rain,360,2013-12-07 18:56:00
2:04 PM,48.0,45.0,89,30.27,-9999.0,North,16.1,-,N/A,Rain,Light Rain,360,2013-12-07 19:04:00
2:44 PM,46.9,45.0,93,30.28,-9999.0,North,12.7,25.3,N/A,Rain,Light Rain,360,2013-12-07 19:44:00
2:51 PM,46.4,44.6,93,30.28,-9999.0,North,15.0,24.2,N/A,Rain,Light Rain,10,2013-12-07 19:51:00
2:56 PM,46.9,45.0,93,30.29,-9999.0,North,17.3,-,N/A,Rain,Light Rain,10,2013-12-07 19:56:00
3:56 PM,48.0,44.1,86,30.32,-9999.0,NNE,18.4,24.2,N/A,,Overcast,20,2013-12-07 20:56:00
4:56 PM,48.0,43.0,83,30.33,-9999.0,NNE,17.3,26.5,N/A,Rain,Light Rain,20,2013-12-07 21:56:00
5:21 PM,46.9,44.1,90,30.33,-9999.0,NNE,15.0,-,N/A,,Overcast,20,2013-12-07 22:21:00
5:56 PM,46.9,43.0,86,30.36,-9999.0,North,18.4,25.3,N/A,Rain,Light Rain,10,2013-12-07 22:56:00
6:56 PM,46.9,43.0,86,30.38,-9999.0,North,16.1,25.3,N/A,Rain,Light Rain,10,2013-12-07 23:56:00
7:56 PM,46.0,43.0,89,30.40,-9999.0,North,16.1,24.2,N/A,Rain,Heavy Rain,10,2013-12-08 00:56:00
8:56 PM,46.0,42.1,86,30.41,-9999.0,North,16.1,-,N/A,Rain,Light Rain,10,2013-12-08 01:56:00
9:56 PM,46.9,42.1,83,30.41,-9999.0,NNE,15.0,24.2,N/A,Rain,Light Rain,20,2013-12-08 02:56:00
10:56 PM,46.9,42.1,83,30.42,-9999.0,NNE,16.1,23.0,N/A,,Overcast,20,2013-12-08 03:56:00
11:56 PM,46.9,42.1,83,30.41,-9999.0,North,13.8,21.9,N/A,,Overcast,10,2013-12-08 04:56:00